DW3072 Weather Reports


Display with metric or nautical units.
time (UTC)temp
F
wind
direction
speed
MPH
gust
MPH
rain 1hr
in
rain 24hr
in
rain mn
in
humidity
%
barometer
mb
20260504050548 40 131 0.0 2.0 0.00 0.00 0.00 80 1012.2
20260504045058 39 81 0.0 2.0 0.00 0.00 0.00 80 1012.3
20260504043535 39 81 0.0 2.0 0.00 0.00 0.00 80 1012.3
20260504042027 40 72 0.0 1.0 0.00 0.00 0.00 80 1012.2
20260504040527 40 72 0.0 0.0 0.00 0.00 0.00 79 1011.9
20260504035041 40 72 0.0 1.0 0.00 0.00 0.00 79 1011.8
20260504033538 41 36 0.0 0.0 0.00 0.00 0.00 78 1011.6
20260504032029 41 36 0.0 0.0 0.00 0.00 0.00 76 1011.6
20260504030554 42 36 0.0 0.0 0.00 0.00 0.00 75 1011.6
20260504025044 43 36 0.0 0.0 0.00 0.00 0.00 74 1011.6
20260504023559 43 36 0.0 0.0 0.00 0.00 0.00 72 1011.6
20260504022031 44 36 0.0 0.0 0.00 0.00 0.00 70 1011.7
20260504020531 45 36 0.0 0.0 0.00 0.00 0.00 69 1011.7
20260504015045 46 36 0.0 0.0 0.00 0.00 0.00 68 1011.4
20260504013541 47 36 0.0 0.0 0.00 0.00 0.00 65 1011.3
20260504012104 48 36 0.0 0.0 0.00 0.00 0.00 62 1011.4
20260504010540 49 36 0.0 0.0 0.00 0.00 0.00 62 1011.1
20260504005027 50 36 0.0 0.0 0.00 0.00 0.00 61 1011.0
20260504003552 51 36 0.0 0.0 0.00 0.00 0.00 57 1010.7
20260504002045 53 105 0.0 1.0 0.00 0.00 0.00 55 1010.7
20260504000541 54 122 0.0 4.0 0.00 0.00 0.00 52 1010.5
20260503235032 56 124 0.0 2.0 0.00 0.00 0.00 46 1010.3
20260503233532 57 172 0.0 3.0 0.00 0.00 0.00 41 1010.1
20260503232026 57 180 3.0 7.0 0.00 0.00 0.00 39 1010.1
20260503230526 58 228 2.0 5.0 0.00 0.00 0.00 44 1010.0
20260503225038 58 195 1.0 7.0 0.00 0.00 0.00 38 1009.8
20260503223606 58 141 2.0 3.0 0.00 0.00 0.00 35 1009.9
20260503222042 59 115 1.0 5.0 0.00 0.00 0.00 35 1010.0
20260503220534 60 92 3.0 12.0 0.00 0.00 0.00 35 1009.9
20260503215044 59 170 2.0 5.0 0.00 0.00 0.00 33 1009.8
20260503213556 60 260 4.0 9.0 0.00 0.00 0.00 35 1009.8
20260503212046 60 180 2.0 12.0 0.00 0.00 0.00 33 1009.6
20260503210605 60 108 2.0 9.0 0.00 0.00 0.00 32 1009.4
20260503205039 59 168 2.0 8.0 0.00 0.00 0.00 33 1009.4
20260503203536 58 220 4.0 9.0 0.00 0.00 0.00 33 1009.6
20260503202029 58 94 1.0 3.0 0.00 0.00 0.00 33 1009.7
20260503200528 58 304 2.0 8.0 0.00 0.00 0.00 35 1009.9
20260503195042 57 135 4.0 10.0 0.00 0.00 0.00 34 1010.1
20260503193537 57 313 4.0 8.0 0.00 0.00 0.00 32 1010.3
20260503192045 58 63 5.0 9.0 0.00 0.00 0.00 34 1010.5
20260503190544 57 141 4.0 12.0 0.00 0.00 0.00 34 1010.6
20260503185111 57 273 3.0 14.0 0.00 0.00 0.00 36 1010.6
20260503183545 56 253 6.0 14.0 0.00 0.00 0.00 34 1010.9
20260503182032 55 183 3.0 10.0 0.00 0.00 0.00 36 1011.1
20260503180605 55 155 5.0 12.0 0.00 0.00 0.00 36 1011.0
20260503175047 55 87 4.0 9.0 0.00 0.00 0.00 35 1011.2
20260503173551 56 136 4.0 19.0 0.00 0.00 0.00 35 1011.1
20260503172028 55 219 5.0 10.0 0.00 0.00 0.00 35 1011.2
20260503170526 54 167 5.0 13.0 0.00 0.00 0.00 36 1011.5
20260503150536 48 255 4.0 10.0 0.00 0.00 0.00 49 1012.3
20260503130543 49 217 2.0 11.0 0.00 0.00 0.00 53 1012.3
20260503110542 42 109 2.0 4.0 0.00 0.00 0.00 66 1012.0
20260503080604 44 93 3.0 4.0 0.00 0.00 0.00 61 1010.6
20260503072030 45 130 4.0 8.0 0.00 0.02 0.00 59 1010.5
20260503070557 45 70 1.0 3.0 0.00 0.02 0.00 58 1010.4